Regional Weather Roundup
Issued by NWS

Home | Current Version | Previous Version | Graphics & Text | Print | Product List | Glossary On
Versions: 1 2 3 4 5 6 7 8 9 10 11 12 13 14 15 16 17 18 19 20 21 22 23 24 25 26 27 28 29 30 31 32 33 34 35 36 37 38 39 40 41 42 43 44 45 46 47 48 49 50
000
ASUS43 KLSX 241059
RWRMO

WEATHER SUMMARY FOR MISSOURI
NATIONAL WEATHER SERVICE SPRINGFIELD MO
600 AM CDT FRI OCT 24 2014

NOTE: "FAIR" INDICATES FEW OR NO CLOUDS BELOW 12,000 FEET WITH NO
       SIGNIFICANT WEATHER AND/OR OBSTRUCTIONS TO VISIBILITY.
       CURRENT SKY AND/OR WEATHER CONDITIONS ARE NOT AVAILABLE FOR
       CHILLICOTHE AND FARMINGTON.

MOZ001>031-035>038-043-044-053-054-241200-
...NORTHERN AND WESTERN MISSOURI...

CITY           SKY/WX    TMP DP  RH WIND       PRES   REMARKS
KANSAS CTY INT FOG       57  57 100 S7        30.05S VSB 1/2
KANSAS C DTWN  PTCLDY    58  56  93 CALM      30.05S FOG
LEE`S SUMMIT   CLEAR     55  54  96 S5        30.06S FOG
ST JOSEPH      CLOUDY    54  54 100 S3        30.05R FOG
KIRKSVILLE     FOG       55  55 100 SW3       30.07S VSB 1/4

$$
MOZ066>068-077>081-088>096-101>105-241200-
...SOUTHWEST MISSOURI...

CITY           SKY/WX    TMP DP  RH WIND       PRES   REMARKS
SPRINGFIELD    CLEAR     49  47  93 S3        30.11S
JOPLIN         PTCLDY    52  50  93 S6        30.11F

$$
MOZ032>034-039>042-045>050-055>058-069>072-241200-
...CENTRAL MISSOURI...

CITY           SKY/WX    TMP DP  RH WIND       PRES   REMARKS
COLUMBIA       FOG       53  53 100 S5        30.09F VSB 1/4
JEFFERSON CITY FOG       46  45  96 CALM      30.10S VSB 1/2
ROLLA          CLEAR     48  46  93 SW6       30.10R FOG
SEDALIA        CLOUDY    60  57  89 SW6       30.10S FOG
OSAGE BEACH    CLOUDY    59  55  88 CALM      30.11F

$$
MOZ051-052-059>065-241200-
...EAST CENTRAL MISSOURI...

CITY           SKY/WX    TMP DP  RH WIND       PRES   REMARKS
ST LOUIS INTL  PTCLDY    55  49  80 W3        30.10S
SPIRIT OF STL  MOCLDY    51  49  92 CALM      30.09F
ST CHARLES     CLEAR     48  47  96 CALM      30.09S

$$
MOZ072>076-082>087-097>100-106>115-241200-
...SOUTH CENTRAL AND SOUTHEAST MISSOURI...

CITY           SKY/WX    TMP DP  RH WIND       PRES   REMARKS
CAPE GIRARDEAU MOCLDY    50  47  89 S3        30.12F
FARMINGTON     CLOUDY    48  46  93 CALM      30.13S
POPLAR BLUFF   CLOUDY    47  44  90 CALM      30.13R
WEST PLAINS    CLEAR     45  43  93 CALM      30.13S

$$



USA.gov is the U.S. government's official web portal to all federal, state and local government web resources and services.